User: anonymous   Login
Location: Unspecified
(0.0000°N, 0.0000°E)
Time: 18:58:48
(UTC+00:00)
Language:

Kosmos-2266 - Orbit

View from above orbital plane
View from above orbital plane
View from above satellite
View from above satellite

Ground track
Ground track

The orbit data is extracted from the following two-line orbital elements,

1 22888U 93070A   19340.73800873 +.00000021 +00000-0 +63745-5 0  9993
2 22888 082.9529 045.6368 0048070 002.3270 117.6413 13.74932294306343
Epoch (UTC): 06 December 2019 17:42:43
Eccentricity: 0.0048070
inclination: 82.9529°
perigee height: 946 km
apogee height: 1017 km
right ascension of ascending node: 45.6368°
argument of perigee: 2.3270°
revolutions per day: 13.74932294
mean anomaly at epoch: 117.6413°
orbit number at epoch: 30634

The dashed part of the orbit path shows where the satellite is in the earth's shadow,  

DLR